Wind_Speed
14 15 15 16 17 17 17 17 18 18 19 18 18 18 18 18 17 17 18 18 18 19 19 21 22 24 25 25 25 24 24 24 25 25 24 24 25 26 26 27 27 27 27 28
15 16 16 16 17 17 17 17 17 18 19 18 18 18 18 18 18 18 18 18 18 19 20 21 22 22 23 23 24 24 24 24 24 25 25 25 26 26 27 28 29 29 29 29
16 16 16 16 16 16 16 16 17 18 19 18 18 18 18 19 19 19 19 20 20 21 22 23 23 23 24 24 24 24 24 24 25 25 25 25 26 27 28 28 28 30 30 29
16 16 15 15 15 15 15 16 17 18 18 17 18 19 18 18 19 20 21 21 20 21 23 24 24 24 25 25 26 26 26 24 24 25 25 26 26 26 27 28 28 30 30 30
15 15 15 15 15 15 16 16 16 17 17 18 18 19 18 19 20 20 21 22 22 22 23 23 24 24 25 25 25 25 25 25 25 25 25 26 27 27 27 28 28 29 29 29
15 15 14 14 15 15 15 16 16 16 17 17 18 19 19 20 21 21 22 23 23 23 23 24 24 24 24 24 23 23 23 24 25 25 25 26 26 26 26 26 26 27 28 27
15 15 15 15 15 15 15 15 15 16 17 17 18 18 19 20 21 21 22 22 23 23 23 24 23 24 23 23 23 23 23 23 24 25 24 25 25 25 24 24 24 24 25 26
14 14 14 15 14 14 14 15 15 16 17 17 17 17 17 18 19 20 20 21 22 22 23 23 24 24 23 23 22 23 23 23 24 25 25 25 25 24 24 24 24 24 25 25
14 14 14 14 14 15 15 16 16 16 16 16 16 15 16 17 17 18 18 20 21 21 21 22 22 23 23 23 23 24 24 25 25 26 26 26 26 25 25 25 25 25 25 26
14 14 14 14 14 15 16 16 16 16 17 16 15 15 15 15 15 16 18 19 20 20 20 21 21 22 23 23 23 23 23 24 25 26 27 27 27 27 26 25 25 26 26 26
13 13 13 14 15 16 16 16 16 16 17 17 16 15 15 15 16 17 18 19 19 20 21 21 21 22 22 22 22 23 24 24 25 26 27 27 28 27 26 26 26 26 25 25
14 14 13 14 15 15 15 16 15 16 16 17 17 15 15 16 18 19 18 18 19 20 21 21 21 21 21 22 22 23 24 24 25 25 26 26 26 27 27 26 26 26 25 25
15 15 15 14 14 15 16 15 15 16 16 17 16 16 16 17 19 18 18 19 20 21 21 21 22 22 22 23 23 23 23 24 24 24 24 24 24 24 25 25 25 25 25 26
17 16 16 15 14 14 14 15 16 16 17 17 16 16 17 18 19 18 18 20 21 22 23 23 23 23 23 23 23 23 23 22 22 22 21 21 21 21 22 22 23 24 24 25
18 18 17 16 15 15 14 15 15 16 17 17 17 17 17 18 18 18 19 21 22 23 23 23 23 24 24 24 23 23 22 21 20 19 19 19 19 19 19 20 21 22 22 22
17 18 17 17 16 15 14 15 15 15 16 16 16 16 16 17 18 19 20 21 22 23 23 23 23 24 23 23 22 21 21 20 19 19 18 17 17 17 18 18 19 19 19 20
17 16 16 16 15 15 15 15 15 15 15 16 16 16 17 18 19 20 21 22 23 22 22 22 22 22 22 21 20 19 18 17 17 16 16 16 16 16 16 17 17 16 16 17
17 16 16 15 14 14 13 14 14 13 14 16 16 17 17 18 19 20 21 22 22 22 21 21 20 21 20 19 18 18 17 15 15 15 14 14 15 15 15 14 14 15 15 16
16 15 14 14 14 13 13 13 13 13 14 15 15 16 17 18 19 20 21 21 21 20 20 19 19 19 18 17 16 15 14 13 13 12 12 13 13 13 13 13 12 12 12 12
15 15 14 14 13 13 12 13 13 13 13 14 15 16 17 18 19 20 20 20 19 18 18 18 18 16 15 14 14 12 12 11 11 10 10 10 10 11 11 11 11 11 11 10
13 13 13 13 13 13 12 12 12 12 12 13 14 15 17 18 18 18 18 18 17 17 17 17 16 14 12 12 11 10 9 9 9 8 8 8 8 8 8 8 8 9 9 9
11 11 12 13 13 12 12 12 11 11 12 12 14 15 16 16 16 17 16 16 16 15 15 14 12 11 10 9 9 8 8 8 7 7 7 7 6 6 6 6 7 7 7 7
11 11 11 12 12 12 12 12 12 12 12 13 14 15 15 16 16 16 15 14 13 13 12 11 10 9 8 7 6 6 6 5 5 4 4 4 5 4 4 3 3 3 3 4
10 10 10 10 10 11 11 10 10 11 11 12 13 14 14 15 14 13 13 12 11 11 10 9 9 8 6 5 5 4 4 4 4 4 3 3 2 2 1 1 1 1 2 1
9 9 9 9 9 9 9 9 9 9 10 11 12 12 12 12 12 11 11 10 10 10 9 8 7 6 5 5 5 5 4 4 5 5 5 5 4 4 4 4 4 3 3 3
9 10 10 9 9 9 8 8 7 8 9 10 10 10 10 10 10 9 9 9 9 8 7 7 6 6 6 6 6 6 6 7 7 7 7 7 7 7 7 7 6 6 6 5
Wind_Direction
220 218 218 218 218 219 219 219 222 228 237 242 247 252 254 258 264 269 275 276 276 277 279 281 282 282 283 282 280 278 277 277 276 274 274 271 272 273 270 269 264 262 256 252
214 214 216 218 220 221 222 222 225 232 239 246 251 255 260 266 269 273 276 278 280 280 282 286 285 284 284 283 282 280 279 278 275 273 270 269 268 269 270 270 267 262 260 258
212 216 218 221 224 225 227 225 230 237 243 251 256 261 268 275 275 275 278 281 285 285 285 286 285 283 283 283 283 283 281 277 273 272 271 270 269 268 269 269 266 261 261 258
214 217 219 222 227 230 231 234 237 241 248 258 264 271 272 276 278 279 280 283 287 287 285 284 285 285 284 284 283 282 281 277 273 271 270 271 271 269 268 267 264 262 259 258
216 220 223 228 232 236 239 242 244 247 254 263 269 273 273 276 280 282 283 284 287 290 290 287 286 286 285 285 285 282 281 279 277 273 269 271 273 270 267 266 263 260 258 256
217 223 227 232 236 242 244 248 253 257 263 269 273 276 278 280 283 285 286 285 287 288 289 290 288 287 286 287 285 283 281 280 279 275 271 269 270 269 266 265 264 260 257 255
216 224 229 233 237 246 250 255 262 265 271 274 275 279 284 286 286 288 288 286 286 286 288 289 289 288 286 286 283 282 281 280 279 275 272 271 270 267 264 263 263 261 256 255
219 224 231 234 239 248 254 261 268 275 277 278 279 285 290 291 290 289 288 288 287 287 287 287 286 287 285 284 284 282 281 279 278 277 275 275 273 269 265 264 263 263 258 255
222 226 233 237 244 251 257 264 271 279 283 285 287 291 294 294 292 290 290 291 290 288 287 287 287 287 286 284 283 281 280 278 277 277 276 276 274 270 266 264 263 263 260 257
227 228 235 243 251 257 262 268 273 281 287 289 290 295 299 298 296 295 294 296 294 292 292 291 289 290 288 286 283 281 280 278 276 275 274 274 273 271 269 266 263 262 259 256
237 238 243 251 258 262 265 269 275 280 284 290 294 299 300 299 301 303 301 299 297 295 293 292 291 291 291 289 286 284 283 281 278 276 274 272 270 268 268 267 263 260 257 255
247 248 252 257 261 264 267 270 276 281 285 288 294 300 299 301 302 302 300 298 299 299 297 296 295 294 294 294 293 290 287 285 281 278 275 273 270 267 265 264 261 259 258 256
254 255 257 258 262 265 265 269 275 279 283 287 295 301 298 301 303 302 299 298 299 300 300 299 298 297 297 296 295 293 290 287 284 280 277 272 268 265 262 261 259 257 256 256
254 257 258 260 264 264 266 273 276 279 283 287 294 299 300 301 303 302 300 299 300 299 300 301 300 298 297 296 295 293 291 289 287 283 280 273 267 264 262 261 259 258 257 256
251 256 258 260 265 267 270 274 275 278 283 288 293 297 302 303 301 300 300 300 301 300 302 302 300 299 297 297 296 294 290 289 287 284 281 274 267 264 262 261 258 258 257 255
251 256 257 261 265 270 273 275 276 278 282 290 294 297 300 303 302 301 301 302 303 302 302 302 300 301 300 299 297 295 291 288 285 282 277 271 265 264 263 261 260 259 256 254
252 254 257 261 265 269 271 275 278 281 284 289 294 297 299 300 303 305 304 303 305 304 302 302 301 302 302 300 298 296 295 289 285 280 274 270 267 267 266 264 260 259 256 255
249 252 255 258 262 268 272 273 277 281 286 291 293 294 297 300 303 305 306 306 306 306 306 305 303 303 302 301 299 299 296 292 287 281 275 274 270 269 270 267 264 259 255 255
247 250 253 258 263 267 271 274 277 280 287 291 294 295 298 302 304 307 308 309 308 307 306 306 306 305 303 303 300 298 297 294 290 283 278 275 269 269 269 268 265 264 261 257
244 249 254 258 263 264 267 271 277 281 287 292 294 297 301 305 307 309 310 310 309 307 307 308 308 306 305 306 305 301 299 299 293 283 282 281 275 273 272 271 267 266 266 263
245 248 253 258 260 262 268 272 278 283 289 290 295 300 304 307 310 312 312 313 313 313 311 312 311 310 309 308 308 305 305 304 297 285 284 285 284 279 275 273 268 268 268 268
244 247 250 254 257 261 266 271 276 283 288 293 299 304 307 309 312 312 313 316 318 318 319 319 318 316 313 312 312 311 310 309 303 293 288 289 292 288 282 277 274 274 277 274
246 247 249 252 258 261 264 269 274 279 286 295 301 307 311 312 313 314 318 322 325 327 329 328 328 327 323 323 326 326 324 328 325 318 309 304 304 300 294 289 292 293 292 286
244 246 250 251 257 261 267 272 275 277 284 293 301 308 314 316 318 320 326 331 332 336 340 342 344 347 349 350 351 353 357 7 12 12 10 359 347 351 2 11 10 6 357 345
242 242 239 241 252 262 270 271 271 277 285 293 305 311 317 323 324 325 331 337 341 346 352 358 5 7 13 24 30 33 36 36 37 41 48 50 56 64 63 60 60 62 57 52
234 235 236 242 249 256 263 265 267 280 290 295 306 315 318 326 328 331 341 349 355 2 11 18 24 29 35 44 51 57 58 55 53 58 68 73 72 70 69 68 70 71 68 64
Height
5796 5799 5800 5802 5804 5806 5808 5810 5812 5813 5814 5815 5816 5817 5818 5818 5818 5818 5818 5818 5818 5818 5817 5817 5816 5816 5815 5815 5815 5814 5814 5814 5814 5814 5814 5814 5814 5815 5815 5815 5816 5817 5818 5819
5795 5796 5798 5800 5802 5804 5806 5808 5810 5811 5811 5813 5813 5814 5814 5814 5814 5814 5814 5814 5813 5813 5813 5812 5811 5811 5810 5809 5809 5809 5808 5808 5808 5808 5808 5808 5808 5808 5808 5809 5809 5810 5811 5812
5792 5795 5796 5798 5800 5803 5805 5807 5808 5808 5809 5809 5810 5811 5811 5810 5810 5810 5810 5809 5809 5809 5808 5807 5806 5805 5805 5804 5803 5802 5802 5801 5801 5801 5801 5801 5801 5801 5802 5802 5802 5803 5803 5804
5790 5793 5795 5797 5799 5801 5803 5804 5805 5806 5806 5807 5808 5807 5807 5806 5806 5806 5805 5805 5804 5804 5803 5802 5801 5800 5799 5798 5797 5796 5795 5794 5794 5794 5794 5794 5794 5794 5794 5795 5795 5795 5796 5797
5789 5791 5794 5796 5798 5799 5801 5802 5803 5803 5803 5804 5804 5803 5804 5802 5802 5802 5801 5800 5799 5798 5797 5796 5795 5794 5793 5791 5790 5790 5789 5788 5788 5788 5787 5787 5787 5786 5787 5787 5787 5788 5789 5790
5788 5790 5792 5794 5796 5797 5798 5800 5800 5800 5801 5801 5800 5800 5800 5799 5798 5797 5796 5795 5794 5793 5792 5790 5789 5788 5787 5785 5784 5783 5782 5782 5781 5780 5780 5780 5779 5779 5779 5779 5780 5780 5781 5783
5787 5789 5791 5792 5794 5795 5796 5798 5798 5798 5798 5798 5797 5796 5797 5795 5794 5793 5791 5790 5789 5788 5786 5785 5783 5782 5781 5779 5778 5777 5776 5775 5774 5774 5773 5773 5772 5771 5771 5772 5773 5773 5774 5776
5786 5788 5789 5790 5792 5793 5793 5795 5796 5795 5795 5794 5793 5793 5793 5791 5789 5788 5787 5785 5784 5782 5781 5779 5777 5776 5774 5773 5772 5771 5770 5769 5768 5767 5767 5766 5765 5764 5765 5766 5766 5766 5767 5768
5784 5786 5787 5788 5789 5790 5791 5791 5792 5792 5790 5790 5790 5790 5789 5787 5785 5784 5782 5781 5779 5777 5775 5773 5771 5770 5768 5767 5765 5764 5763 5762 5761 5760 5760 5759 5758 5758 5758 5759 5759 5760 5760 5761
5782 5784 5785 5786 5787 5787 5788 5788 5788 5788 5787 5786 5786 5786 5785 5784 5782 5780 5778 5776 5774 5772 5770 5768 5766 5764 5762 5760 5758 5757 5756 5755 5754 5753 5752 5752 5751 5751 5751 5751 5752 5753 5753 5754
5780 5782 5783 5784 5784 5784 5785 5785 5784 5784 5783 5783 5782 5784 5782 5780 5778 5776 5774 5772 5770 5768 5765 5763 5761 5758 5756 5754 5752 5750 5749 5747 5746 5746 5745 5744 5744 5743 5743 5743 5744 5745 5746 5747
5777 5779 5780 5781 5781 5780 5780 5781 5781 5781 5780 5779 5778 5781 5777 5776 5774 5771 5769 5767 5765 5763 5760 5757 5755 5752 5750 5748 5745 5743 5742 5740 5739 5738 5737 5736 5736 5736 5736 5736 5737 5738 5739 5740
5774 5776 5777 5777 5779 5778 5777 5777 5777 5777 5777 5776 5775 5777 5773 5771 5769 5767 5765 5762 5760 5757 5755 5752 5749 5747 5744 5742 5739 5737 5735 5733 5732 5730 5729 5729 5728 5728 5729 5729 5730 5731 5732 5733
5770 5771 5773 5774 5774 5773 5774 5774 5773 5773 5772 5772 5771 5771 5769 5767 5765 5763 5760 5758 5755 5752 5749 5746 5743 5741 5738 5736 5733 5731 5729 5727 5725 5724 5723 5722 5722 5722 5722 5723 5723 5724 5725 5726
5766 5767 5768 5769 5769 5769 5770 5770 5770 5770 5769 5768 5767 5766 5765 5762 5760 5758 5755 5753 5750 5747 5744 5740 5737 5734 5732 5729 5727 5725 5723 5721 5719 5718 5717 5716 5716 5716 5716 5717 5717 5718 5718 5719
5761 5762 5763 5764 5765 5765 5766 5766 5766 5766 5765 5764 5763 5762 5760 5758 5756 5753 5750 5747 5744 5741 5738 5735 5731 5728 5726 5723 5721 5719 5717 5715 5713 5712 5711 5711 5711 5711 5711 5711 5712 5712 5713 5714
5756 5758 5759 5760 5761 5762 5763 5763 5762 5761 5761 5760 5759 5758 5756 5754 5751 5748 5745 5742 5739 5735 5732 5729 5726 5723 5720 5717 5715 5713 5711 5710 5709 5707 5707 5706 5706 5707 5707 5707 5707 5707 5708 5709
5752 5754 5755 5756 5758 5758 5761 5759 5758 5758 5757 5756 5755 5753 5752 5749 5747 5744 5740 5737 5733 5730 5726 5723 5720 5718 5715 5712 5710 5708 5707 5705 5704 5703 5703 5702 5702 5702 5702 5703 5703 5703 5703 5704
5748 5750 5751 5753 5753 5755 5756 5755 5755 5754 5754 5752 5751 5749 5747 5745 5742 5739 5735 5732 5728 5725 5722 5719 5716 5713 5710 5708 5706 5704 5703 5701 5701 5700 5699 5698 5698 5698 5698 5699 5699 5699 5699 5700
5745 5746 5749 5749 5750 5751 5753 5752 5751 5752 5751 5749 5747 5745 5743 5741 5738 5735 5731 5727 5724 5720 5717 5714 5712 5709 5707 5705 5703 5701 5700 5699 5698 5697 5696 5696 5696 5695 5695 5695 5696 5696 5696 5697
5742 5743 5745 5746 5747 5748 5749 5749 5749 5749 5749 5746 5744 5742 5740 5737 5734 5731 5727 5723 5720 5716 5713 5711 5708 5706 5704 5702 5700 5699 5697 5696 5695 5695 5694 5694 5693 5693 5693 5693 5693 5694 5694 5694
5739 5740 5742 5743 5744 5747 5745 5745 5746 5745 5744 5742 5741 5739 5736 5733 5730 5727 5723 5719 5716 5713 5710 5707 5705 5703 5701 5699 5698 5697 5696 5695 5694 5693 5692 5692 5691 5691 5691 5691 5691 5692 5692 5692
5736 5738 5739 5741 5743 5743 5742 5742 5742 5741 5741 5739 5737 5735 5733 5730 5727 5723 5720 5717 5713 5711 5708 5705 5703 5701 5699 5698 5697 5696 5694 5693 5692 5692 5691 5691 5690 5690 5690 5690 5690 5690 5691 5691
5734 5735 5736 5737 5739 5739 5739 5739 5739 5738 5738 5736 5734 5732 5730 5727 5724 5721 5718 5715 5712 5709 5706 5704 5702 5700 5699 5697 5696 5695 5694 5693 5692 5692 5691 5690 5690 5690 5690 5690 5690 5690 5690 5691
5731 5732 5734 5735 5736 5736 5736 5736 5736 5736 5735 5733 5732 5729 5727 5724 5722 5719 5716 5713 5710 5708 5706 5704 5702 5700 5699 5698 5696 5695 5694 5694 5693 5692 5692 5691 5691 5691 5691 5691 5691 5691 5691 5691
5728 5730 5731 5733 5733 5734 5734 5734 5734 5733 5732 5731 5729 5727 5725 5723 5720 5718 5715 5713 5710 5708 5706 5704 5703 5701 5700 5699 5698 5697 5696 5695 5694 5694 5693 5693 5692 5692 5692 5692 5693 5692 5693 5693